Precipitable_Water
0.67 0.64 0.64 0.60 0.58 0.58 0.59 0.59 0.56 0.56 0.61 0.62 0.61 0.56 0.58 0.59 0.55 0.51 0.40 0.40 0.43 0.43 0.42 0.42 0.40 0.37 0.35 0.33 0.32 0.28 0.24 0.23 0.23 0.23 0.20 0.21 0.20 0.22 0.31 0.29 0.36 0.43 0.60 0.65 0.81
0.69 0.69 0.69 0.63 0.60 0.57 0.61 0.58 0.56 0.61 0.61 0.62 0.60 0.57 0.60 0.60 0.51 0.42 0.40 0.45 0.44 0.48 0.42 0.36 0.33 0.32 0.32 0.30 0.25 0.26 0.23 0.22 0.22 0.22 0.18 0.18 0.19 0.20 0.28 0.25 0.29 0.36 0.42 0.73 0.72
0.73 0.71 0.69 0.64 0.60 0.60 0.60 0.56 0.61 0.62 0.62 0.63 0.57 0.63 0.62 0.61 0.50 0.38 0.43 0.43 0.45 0.48 0.44 0.37 0.31 0.31 0.28 0.27 0.25 0.25 0.23 0.20 0.17 0.19 0.18 0.16 0.16 0.19 0.22 0.24 0.28 0.32 0.38 0.62 0.64
0.72 0.70 0.69 0.66 0.63 0.63 0.58 0.61 0.65 0.61 0.65 0.63 0.60 0.62 0.61 0.57 0.33 0.42 0.42 0.43 0.45 0.49 0.41 0.35 0.32 0.29 0.26 0.24 0.25 0.20 0.19 0.16 0.16 0.18 0.20 0.19 0.20 0.18 0.22 0.25 0.28 0.34 0.44 0.54 0.55
0.71 0.69 0.66 0.65 0.65 0.63 0.61 0.65 0.61 0.63 0.63 0.59 0.61 0.61 0.52 0.48 0.38 0.44 0.42 0.42 0.43 0.41 0.39 0.34 0.29 0.26 0.22 0.21 0.21 0.19 0.17 0.16 0.18 0.20 0.25 0.23 0.22 0.21 0.22 0.26 0.27 0.37 0.48 0.57 0.65
0.71 0.68 0.65 0.66 0.64 0.64 0.66 0.61 0.63 0.64 0.62 0.59 0.60 0.60 0.48 0.37 0.41 0.42 0.41 0.39 0.42 0.38 0.33 0.31 0.27 0.26 0.21 0.22 0.26 0.25 0.26 0.27 0.27 0.27 0.25 0.25 0.24 0.26 0.28 0.29 0.29 0.34 0.45 0.57 0.59
0.69 0.68 0.68 0.65 0.63 0.64 0.62 0.63 0.63 0.65 0.62 0.59 0.55 0.51 0.44 0.37 0.39 0.37 0.36 0.35 0.37 0.39 0.30 0.29 0.29 0.26 0.26 0.24 0.27 0.24 0.23 0.26 0.28 0.30 0.31 0.28 0.23 0.22 0.29 0.29 0.30 0.34 0.40 0.54 0.61
0.68 0.66 0.65 0.63 0.61 0.62 0.60 0.61 0.65 0.63 0.60 0.59 0.57 0.49 0.40 0.41 0.42 0.32 0.33 0.33 0.37 0.39 0.36 0.32 0.33 0.35 0.35 0.33 0.26 0.25 0.29 0.25 0.28 0.29 0.31 0.31 0.31 0.28 0.33 0.31 0.31 0.33 0.40 0.46 0.58
0.66 0.63 0.67 0.60 0.63 0.60 0.61 0.65 0.64 0.62 0.59 0.59 0.48 0.52 0.30 0.36 0.32 0.32 0.34 0.35 0.38 0.41 0.41 0.39 0.37 0.31 0.31 0.26 0.24 0.23 0.24 0.20 0.24 0.26 0.28 0.26 0.30 0.35 0.34 0.30 0.29 0.32 0.34 0.38 0.50
0.65 0.63 0.62 0.60 0.58 0.60 0.65 0.64 0.63 0.60 0.54 0.54 0.48 0.34 0.27 0.28 0.29 0.31 0.35 0.38 0.39 0.39 0.35 0.33 0.31 0.29 0.28 0.25 0.21 0.19 0.17 0.17 0.18 0.26 0.23 0.24 0.27 0.29 0.31 0.31 0.32 0.35 0.37 0.40 0.42
0.67 0.64 0.59 0.58 0.60 0.65 0.62 0.55 0.42 0.40 0.40 0.37 0.30 0.32 0.25 0.28 0.30 0.30 0.37 0.37 0.36 0.36 0.33 0.29 0.30 0.26 0.26 0.24 0.23 0.18 0.17 0.19 0.23 0.25 0.21 0.25 0.26 0.28 0.32 0.34 0.35 0.36 0.38 0.40 0.48
0.65 0.62 0.59 0.60 0.62 0.64 0.68 0.61 0.56 0.46 0.27 0.33 0.31 0.30 0.30 0.33 0.26 0.30 0.36 0.31 0.29 0.28 0.26 0.21 0.25 0.26 0.23 0.22 0.19 0.20 0.22 0.23 0.24 0.26 0.22 0.30 0.27 0.31 0.33 0.36 0.38 0.39 0.40 0.43 0.46
0.69 0.68 0.67 0.67 0.65 0.67 0.65 0.61 0.64 0.54 0.27 0.28 0.32 0.29 0.29 0.33 0.27 0.25 0.30 0.26 0.24 0.21 0.19 0.24 0.25 0.22 0.21 0.23 0.22 0.25 0.23 0.25 0.23 0.27 0.27 0.28 0.27 0.28 0.32 0.36 0.39 0.41 0.44 0.47 0.48
0.68 0.66 0.67 0.66 0.59 0.61 0.54 0.61 0.63 0.62 0.25 0.19 0.25 0.26 0.30 0.31 0.23 0.31 0.31 0.27 0.22 0.20 0.22 0.23 0.23 0.23 0.24 0.24 0.24 0.24 0.29 0.26 0.25 0.24 0.24 0.32 0.24 0.33 0.34 0.33 0.40 0.46 0.50 0.51 0.51
0.66 0.64 0.64 0.66 0.63 0.48 0.59 0.64 0.63 0.59 0.16 0.23 0.26 0.36 0.30 0.29 0.30 0.28 0.34 0.28 0.23 0.22 0.25 0.25 0.25 0.27 0.28 0.29 0.30 0.30 0.32 0.29 0.28 0.26 0.25 0.27 0.18 0.34 0.37 0.34 0.39 0.46 0.51 0.54 0.56
0.66 0.65 0.63 0.61 0.66 0.64 0.65 0.64 0.51 0.32 0.16 0.21 0.28 0.28 0.28 0.29 0.29 0.33 0.32 0.35 0.35 0.27 0.28 0.27 0.33 0.34 0.33 0.34 0.33 0.34 0.33 0.32 0.31 0.30 0.22 0.26 0.26 0.33 0.35 0.38 0.41 0.48 0.52 0.54 0.57
0.62 0.66 0.65 0.66 0.51 0.68 0.66 0.48 0.22 0.24 0.27 0.21 0.24 0.28 0.29 0.27 0.28 0.32 0.31 0.31 0.31 0.26 0.27 0.29 0.31 0.36 0.38 0.33 0.39 0.37 0.31 0.26 0.25 0.26 0.26 0.36 0.24 0.33 0.43 0.46 0.46 0.48 0.52 0.54 0.58
0.62 0.64 0.66 0.68 0.69 0.69 0.52 0.34 0.22 0.27 0.23 0.29 0.27 0.28 0.26 0.30 0.30 0.32 0.33 0.29 0.32 0.31 0.27 0.26 0.28 0.34 0.37 0.33 0.30 0.33 0.30 0.27 0.18 0.21 0.25 0.33 0.21 0.35 0.45 0.46 0.48 0.50 0.52 0.54 0.58
0.61 0.61 0.60 0.65 0.70 0.63 0.39 0.24 0.23 0.22 0.28 0.24 0.26 0.25 0.24 0.28 0.32 0.33 0.32 0.30 0.32 0.34 0.30 0.27 0.28 0.37 0.37 0.39 0.36 0.36 0.33 0.34 0.27 0.31 0.21 0.22 0.34 0.42 0.43 0.43 0.45 0.46 0.50 0.54 0.57
0.53 0.49 0.52 0.68 0.65 0.49 0.36 0.32 0.30 0.31 0.29 0.28 0.24 0.30 0.27 0.29 0.30 0.33 0.33 0.37 0.35 0.36 0.40 0.29 0.28 0.33 0.31 0.34 0.42 0.30 0.34 0.29 0.33 0.19 0.16 0.20 0.25 0.27 0.41 0.42 0.43 0.46 0.49 0.53 0.57
0.51 0.39 0.57 0.66 0.56 0.35 0.29 0.31 0.27 0.33 0.35 0.32 0.31 0.28 0.33 0.31 0.35 0.33 0.33 0.37 0.39 0.36 0.36 0.27 0.25 0.28 0.28 0.31 0.26 0.34 0.36 0.35 0.33 0.30 0.24 0.20 0.22 0.39 0.40 0.42 0.45 0.49 0.52 0.55 0.59
0.52 0.39 0.57 0.61 0.30 0.34 0.36 0.31 0.36 0.34 0.41 0.39 0.41 0.37 0.37 0.37 0.34 0.34 0.33 0.39 0.43 0.36 0.29 0.30 0.26 0.21 0.23 0.32 0.37 0.36 0.35 0.34 0.28 0.27 0.33 0.29 0.24 0.41 0.40 0.45 0.46 0.47 0.54 0.61 0.62
0.52 0.53 0.61 0.57 0.32 0.28 0.37 0.36 0.41 0.39 0.41 0.39 0.39 0.43 0.44 0.39 0.32 0.37 0.39 0.45 0.39 0.37 0.35 0.32 0.26 0.18 0.23 0.33 0.40 0.33 0.36 0.37 0.35 0.34 0.24 0.23 0.27 0.45 0.48 0.51 0.54 0.55 0.58 0.60 0.61
0.58 0.41 0.47 0.50 0.55 0.36 0.32 0.34 0.36 0.48 0.43 0.45 0.44 0.45 0.41 0.37 0.41 0.36 0.36 0.38 0.39 0.39 0.37 0.34 0.27 0.21 0.17 0.21 0.25 0.25 0.30 0.32 0.32 0.29 0.30 0.31 0.33 0.39 0.44 0.48 0.51 0.51 0.57 0.59 0.60
0.60 0.52 0.53 0.36 0.40 0.43 0.41 0.40 0.36 0.34 0.44 0.46 0.41 0.42 0.40 0.34 0.35 0.34 0.36 0.32 0.36 0.37 0.36 0.36 0.25 0.26 0.25 0.25 0.25 0.26 0.29 0.32 0.31 0.33 0.31 0.34 0.36 0.42 0.47 0.50 0.51 0.55 0.58 0.58 0.58
0.50 0.49 0.54 0.51 0.50 0.45 0.42 0.38 0.37 0.38 0.40 0.38 0.40 0.42 0.41 0.35 0.32 0.30 0.30 0.29 0.30 0.36 0.35 0.38 0.27 0.27 0.21 0.28 0.25 0.24 0.28 0.31 0.32 0.36 0.38 0.39 0.38 0.50 0.53 0.52 0.52 0.55 0.56 0.55 0.57
0.64 0.64 0.58 0.44 0.44 0.42 0.39 0.41 0.41 0.44 0.47 0.47 0.45 0.40 0.37 0.39 0.42 0.41 0.40 0.39 0.37 0.34 0.34 0.32 0.29 0.25 0.21 0.27 0.25 0.25 0.33 0.31 0.35 0.40 0.40 0.36 0.43 0.48 0.48 0.51 0.53 0.54 0.56 0.59 0.64
Wind_Speed
20 19 18 17 19 17 16 16 14 14 13 12 11 10 8 7 7 7 6 7 7 7 7 8 10 10 10 8 7 5 8 7 6 7 6 6 5 3 3 6 5 6 7 12 12
18 18 17 16 17 16 15 15 14 14 13 12 11 10 9 8 8 6 6 7 7 8 8 9 11 11 9 8 7 7 6 5 4 4 9 8 6 8 8 8 9 9 9 11 11
16 16 16 16 16 16 15 15 14 14 13 12 11 11 10 9 7 6 7 7 8 9 7 8 10 9 9 9 7 4 5 6 7 7 9 9 8 8 8 7 8 9 8 10 9
15 14 15 15 16 16 15 16 15 14 13 12 13 13 11 10 7 6 7 7 9 9 8 8 9 8 9 7 6 5 7 9 10 10 8 9 9 8 6 8 6 6 7 8 7
14 14 15 17 16 16 17 16 15 14 13 13 14 13 12 9 8 8 7 8 9 9 7 7 8 7 5 8 9 11 11 11 10 9 7 7 7 5 7 7 6 4 5 6 6
12 12 15 17 17 18 17 17 15 15 14 14 15 13 12 9 8 8 8 8 8 8 7 7 7 6 10 13 9 11 11 9 9 8 6 6 7 6 6 5 5 5 6 6 6
11 13 16 17 19 19 18 18 17 16 16 15 15 14 10 11 10 9 10 9 9 9 9 8 9 9 11 9 9 11 9 8 7 8 4 6 8 9 5 5 5 6 8 8 8
13 15 17 19 20 21 21 20 19 17 16 16 15 14 10 11 9 10 10 9 8 8 9 9 8 9 7 8 9 9 7 8 5 6 5 7 9 7 6 7 9 10 9 10 10
14 17 19 21 23 24 23 21 19 17 17 16 15 12 10 10 9 8 9 9 9 9 8 8 8 7 7 9 8 7 8 5 6 6 5 6 1 1 7 10 13 12 12 11 12
15 20 21 24 25 26 24 21 19 18 17 15 12 10 10 9 8 8 9 9 9 9 8 6 6 7 8 8 6 6 6 6 5 3 7 7 6 5 6 6 7 9 10 10 12
19 22 24 27 27 26 23 21 18 17 15 10 14 9 11 9 9 8 8 8 8 7 7 5 7 3 2 2 2 3 5 6 4 4 7 7 6 5 5 3 3 3 4 5 6
21 24 26 27 26 24 21 16 15 15 15 13 12 11 9 8 9 7 6 6 7 7 5 6 4 3 3 3 4 5 6 5 5 4 7 7 6 5 4 4 2 2 2 3 5
23 25 26 26 25 22 18 16 16 14 13 12 10 8 7 7 4 4 3 4 5 6 6 2 3 4 4 3 6 5 6 5 9 8 11 11 9 8 5 4 4 3 4 5 6
24 24 25 25 21 20 18 16 16 12 10 10 8 6 5 5 3 2 2 2 3 4 4 2 4 4 5 4 7 9 6 10 12 11 11 12 9 11 9 7 6 7 8 8 9
23 23 24 23 20 18 18 16 14 9 8 8 7 4 4 2 3 1 1 3 4 5 5 3 5 5 6 6 8 7 11 12 13 14 15 13 13 9 11 9 8 9 9 10 11
23 22 22 20 19 18 17 15 12 7 5 7 6 6 4 3 1 1 1 1 2 3 2 3 5 6 7 9 10 12 13 13 13 12 12 12 11 9 13 9 9 10 11 11 12
23 21 20 19 18 18 16 14 9 5 6 7 7 5 3 2 1 1 2 1 3 5 5 5 3 4 7 11 7 11 11 10 9 9 9 6 12 8 8 10 11 11 12 12 14
23 21 20 19 18 17 15 12 9 3 7 4 6 6 4 3 1 3 3 2 2 3 3 5 4 5 6 5 7 7 8 6 9 8 9 8 12 9 9 10 11 12 13 15 17
23 21 20 18 17 16 14 12 5 8 7 8 8 6 5 4 4 3 1 1 1 2 1 3 0 1 4 6 7 7 6 8 10 9 11 13 9 12 12 11 12 13 16 17 21
22 21 19 17 16 15 13 8 7 6 6 10 7 6 5 5 4 3 2 2 2 2 1 1 2 3 5 7 5 9 8 9 7 10 11 9 13 15 12 14 15 17 18 20 22
22 19 18 17 16 15 12 8 8 8 7 7 6 6 5 5 4 3 3 4 1 1 2 3 3 2 5 6 10 8 8 10 11 11 12 14 11 10 14 17 19 19 21 23 24
20 17 18 17 16 13 11 9 8 10 8 6 5 5 6 6 4 4 4 2 2 1 1 4 3 5 7 7 9 11 11 12 12 13 13 15 18 14 14 16 19 22 23 22 24
17 15 18 18 14 14 10 9 9 11 8 8 7 6 6 6 4 4 4 3 2 1 2 5 4 7 6 6 8 11 12 13 14 14 18 17 16 14 15 18 19 21 21 23 24
17 15 17 17 12 15 14 12 11 9 8 7 7 7 7 6 4 5 4 4 3 2 4 6 7 9 11 14 16 17 19 19 18 18 19 19 23 21 20 21 22 24 24 25 26
17 16 15 17 14 14 14 14 13 11 10 10 8 8 8 5 5 5 5 4 5 5 6 8 9 11 14 17 20 22 23 23 23 22 22 24 24 22 24 21 23 24 24 26 29
18 16 16 13 14 15 12 14 15 10 11 11 10 9 8 7 6 7 6 6 6 6 8 9 10 13 14 17 22 26 26 23 23 20 19 21 22 18 20 22 22 25 28 30 33
18 16 16 15 16 15 14 14 14 12 9 9 11 9 6 4 3 3 4 5 6 8 9 11 12 14 15 21 26 20 15 19 17 15 20 18 19 21 21 22 25 29 31 34 35
Wind_Direction
265 260 255 250 235 234 235 228 226 222 220 217 219 216 209 208 202 191 199 203 192 192 193 190 184 181 187 187 196 209 184 183 190 189 202 193 170 170 156 137 141 139 108 139 146
261 252 248 239 227 227 224 217 216 210 206 206 205 198 191 183 180 172 171 173 179 178 177 178 176 178 183 187 191 244 187 166 206 171 163 163 155 141 145 137 139 138 131 136 150
257 246 238 226 220 217 213 209 203 199 198 197 192 184 176 168 177 145 163 165 165 163 173 177 172 191 185 189 199 228 170 175 173 159 157 152 147 143 141 153 148 153 151 157 164
250 236 224 217 213 210 205 196 193 190 191 189 181 175 169 166 166 160 156 160 158 159 155 155 170 174 173 180 176 154 152 156 147 154 153 159 146 157 162 129 138 139 157 172 187
237 227 218 210 204 196 190 187 183 183 179 175 171 169 167 170 149 153 153 153 162 166 174 169 170 159 156 161 151 141 142 140 146 155 157 155 164 153 164 153 165 167 177 189 203
218 211 201 193 188 182 178 176 177 170 165 162 162 160 162 166 155 152 146 145 144 162 158 155 145 143 137 137 147 146 144 149 161 165 166 185 175 183 166 185 204 212 216 214 218
193 187 178 177 175 172 169 166 161 157 154 152 153 153 157 138 144 141 143 138 135 134 142 141 139 147 144 144 147 153 150 164 182 184 180 212 208 215 189 219 236 239 240 233 231
178 174 171 167 166 164 158 155 151 149 148 147 146 148 138 144 141 144 143 144 140 137 132 138 146 137 152 138 155 171 198 188 172 199 203 236 239 192 236 255 254 248 241 241 239
165 164 160 160 156 154 152 149 147 145 146 145 144 148 136 138 144 141 147 147 143 141 135 137 148 151 154 168 173 188 213 197 194 222 235 234 244 209 275 262 262 253 239 246 249
153 155 155 154 152 150 148 145 142 141 141 143 149 145 141 137 138 141 143 146 149 147 149 159 163 166 188 200 244 183 205 211 248 211 245 243 258 286 275 266 256 251 254 256 252
151 150 151 150 149 148 145 141 141 142 149 134 140 134 131 129 139 139 144 153 160 180 193 188 215 188 126 243 257 240 249 252 239 251 267 239 249 263 270 255 264 259 249 244 242
148 148 149 150 150 150 149 152 144 138 135 134 131 125 130 135 132 136 158 180 186 193 193 206 184 196 231 247 251 250 264 249 260 251 269 250 229 249 250 263 275 260 230 237 255
147 147 150 152 151 152 154 146 145 140 138 135 134 129 130 127 122 124 185 192 202 205 213 249 168 217 241 243 266 251 278 284 287 279 265 262 233 231 243 243 252 265 270 275 276
150 151 152 152 154 155 153 150 148 142 147 143 148 139 149 147 122 119 167 193 199 181 170 196 214 228 242 255 284 277 271 284 278 271 265 236 253 231 232 240 253 272 279 279 281
155 154 156 159 155 159 157 156 155 151 155 158 150 151 158 173 163 130 215 225 207 198 238 214 226 248 258 279 282 288 287 280 278 270 270 246 260 223 233 242 256 273 279 280 285
161 158 158 162 162 159 158 159 160 173 158 164 170 162 126 129 183 205 215 193 239 216 235 210 249 279 289 278 277 284 278 269 274 268 265 258 262 226 237 243 263 273 278 283 287
165 165 166 164 164 164 163 164 175 197 166 171 173 188 174 175 94 150 187 191 245 220 221 227 270 277 300 291 269 291 287 276 264 255 274 268 265 263 260 267 270 273 278 284 287
171 171 168 166 166 169 171 180 199 191 188 185 182 187 217 193 224 213 185 123 38 270 227 244 220 316 325 322 304 307 303 295 285 289 289 265 273 259 256 260 266 275 282 286 289
173 172 172 173 174 176 183 194 198 200 200 192 191 208 203 216 219 197 126 154 350 353 262 271 261 311 341 333 319 320 309 304 286 277 277 270 271 264 256 260 269 279 287 291 292
174 175 176 179 181 184 195 210 211 218 205 195 211 240 206 188 197 200 182 167 141 49 320 347 274 312 327 311 318 318 312 294 286 291 286 284 290 292 250 262 275 280 291 295 294
176 180 182 184 186 193 205 211 213 205 209 218 216 202 188 182 181 168 165 154 157 119 6 349 318 352 319 338 329 313 307 302 296 289 289 290 289 296 287 281 277 288 293 296 298
180 186 185 185 190 200 211 209 214 197 204 205 196 185 186 178 177 170 171 157 188 283 357 1 337 322 338 340 335 327 321 309 300 296 285 289 286 296 291 286 289 290 295 295 298
186 185 187 190 200 205 207 204 208 197 202 203 197 200 193 181 185 174 178 191 203 278 338 339 322 321 311 321 325 323 321 312 305 304 287 283 287 296 294 292 290 290 296 299 301
188 188 190 201 213 206 205 205 196 204 200 196 185 188 180 190 201 196 192 212 229 271 300 306 312 315 318 321 320 314 309 304 298 293 290 289 291 294 301 306 305 304 302 302 303
197 196 198 203 211 208 206 203 197 201 203 201 202 211 198 210 201 214 202 218 244 263 286 301 302 310 309 312 315 313 308 303 295 288 283 291 290 294 303 305 307 306 303 304 306
200 201 203 206 204 203 205 208 201 202 198 203 209 200 211 212 238 220 227 247 259 267 283 298 304 313 310 314 318 315 310 302 295 292 295 298 295 306 303 306 307 305 306 308 309
205 206 208 211 207 205 209 203 202 196 212 216 197 200 197 212 222 246 262 272 277 280 283 297 303 311 310 322 321 316 313 319 310 294 305 297 300 304 308 312 316 314 312 311 311